Location: Tel Aviv
(32.0670°N, 34.7670°E)
Time: 13:24:59
(UTC+02:00)

Tiros 1 despin weight - Visible Passes

Search period start: 19 January 2022 00:00
Search period end: 29 January 2022 00:00
Orbit: 592 x 641 km, 48.2° (Epoch: 18 January)

Date Brightness Start Highest point End Pass type
(mag) Time Alt. Az. Time Alt. Az. Time Alt. Az.
19 Jan ? 18:33:52 10° WSW 18:38:14 43° NW 18:40:05 29° NNE visible
20 Jan ? 18:50:44 10° W 18:54:33 25° NNW 18:55:45 23° N visible
21 Jan ? 17:24:18 10° WSW 17:28:48 64° NW 17:33:24 10° NE visible
21 Jan ? 19:08:02 10° WNW 19:11:03 17° NNW 19:11:21 17° NNW visible
22 Jan ? 17:40:52 10° W 17:45:01 34° NNW 17:49:15 10° NE visible
22 Jan ? 19:25:39 10° NW 19:26:54 12° NNW 19:26:54 12° NNW visible
23 Jan ? 17:57:55 10° WNW 18:01:25 21° NNW 18:04:57 10° NNE visible
24 Jan ? 18:15:21 10° NW 18:17:57 15° NNW 18:20:35 10° NNE visible
25 Jan ? 18:33:04 10° NNW 18:34:37 11° N 18:36:11 10° N visible
26 Jan ? 18:50:35 10° N 18:51:21 10° N 18:51:42 10° N visible
27 Jan ? 19:06:45 10° N 19:07:08 11° N 19:07:08 11° N visible
28 Jan ? 17:40:29 10° NNW 17:41:33 11° N 17:42:38 10° N visible
28 Jan ? 19:22:22 10° NNW 19:22:35 11° NNW 19:22:35 11° NNW visible
